Weather History for Davenport, IA

Change the Weather History Date:

Wednesday, October 27, 2010

  Actual Average Record
Temperature  
Mean Temperature 51 °F 48 °F  
Max Temperature 60 °F 58 °F 77 °F (1955)
Min Temperature 41 °F 37 °F 21 °F (1997)
Degree Days  
Heating Degree Days 14 17  
Month to date heating degree days 251 351  
Since 1 July heating degree days 338 486  
Cooling Degree Days 0 0  
Month to date cooling degree days 11 11  
Year to date cooling degree days 1059 785  
Moisture  
Dew Point 32 °F    
Average Humidity 53    
Maximum Humidity 70    
Minimum Humidity 36    
Precipitation  
Precipitation 0.00 in 0.09 in 0.40 in (1970)
Month to date precipitation 1.84 2.60  
Year to date precipitation 40.17 31.48  
Snow  
Snow 0.00 in - - ()
Month to date snowfall 0.0  
Since 1 July snowfall 0.0  
Since 1 September snowfall 0.0  
Snow Depth 0.00 in    
Sea Level Pressure  
Sea Level Pressure 29.65 in    
Wind  
Wind Speed 25 mph (WSW)    
Max Wind Speed 43 mph    
Max Gust Speed 52 mph    
Visibility 10 miles    
Events      
T = Trace of Precipitation, MM = Missing Value Source: NWS Daily Summary

Daily Weather History Graph

Daily Weather History Graph

Search for Another Location

Airport:

Trip Planner

Search our weather history database for the weather conditions in past years. The results will help you decide how hot, cold, wet, or windy it might be!

Date:

Astronomy

Oct. 27, 2010 Rise Set
Actual Time 7:28 AM CDT 6:03 PM CDT
Civil Twilight 6:59 AM CDT 6:32 PM CDT
Nautical Twilight 6:27 AM CDT 7:04 PM CDT
Astronomical Twilight 5:54 AM CDT 7:36 PM CDT
Moon 9:24 PM CDT (10/27) 12:05 PM CDT (10/27)
Length of Visible Light 11h 32m
Length of Day
10h 35m
Waning Gibbous, 79% of the Moon is Illuminated
Oct 27
Waning Gibbous
Oct 30
Last Quarter
Nov 5
New
Nov 13
First Quarter
Nov 21
Full

Hourly Weather History & Observations

Time (CDT) Temp. Windchill Dew Point Humidity Pressure Visibility Wind Dir Wind Speed Gust Speed Precip Events Conditions
12:52 AM 54.0 °F - 34.0 °F 47% 29.43 in 10.0 mi SW 20.7 mph 31.1 mph N/A   Clear
1:52 AM 53.1 °F - 34.0 °F 48% 29.44 in 10.0 mi SW 20.7 mph 28.8 mph N/A   Clear
2:52 AM 52.0 °F - 34.0 °F 50% 29.46 in 10.0 mi SW 17.3 mph - N/A   Clear
3:52 AM 50.0 °F - 34.0 °F 54% 29.46 in 10.0 mi SW 19.6 mph 26.5 mph N/A   Clear
4:52 AM 50.0 °F - 34.0 °F 54% 29.47 in 10.0 mi SW 23.0 mph 29.9 mph N/A   Clear
5:52 AM 48.9 °F - 33.1 °F 54% 29.49 in 10.0 mi SW 18.4 mph - N/A   Clear
6:52 AM 48.9 °F - 32.0 °F 52% 29.53 in 10.0 mi WSW 21.9 mph 29.9 mph N/A   Clear
7:52 AM 48.9 °F - 30.9 °F 50% 29.55 in 10.0 mi WSW 16.1 mph - N/A   Clear
8:52 AM 51.1 °F - 30.9 °F 46% 29.57 in 10.0 mi SW 19.6 mph 26.5 mph N/A   Clear
9:52 AM 54.0 °F - 30.9 °F 41% 29.57 in 10.0 mi SW 19.6 mph 28.8 mph N/A   Clear
11:52 AM 57.9 °F - 34.0 °F 41% 29.58 in 10.0 mi WSW 27.6 mph 38.0 mph N/A   Clear
12:52 PM 59.0 °F - 32.0 °F 36% 29.57 in 10.0 mi West 28.8 mph 43.7 mph N/A   Clear
1:52 PM 60.1 °F - 34.0 °F 38% 29.57 in 10.0 mi West 29.9 mph 47.2 mph N/A   Clear
2:52 PM 59.0 °F - 33.1 °F 38% 29.61 in 10.0 mi West 36.8 mph 44.9 mph N/A   Scattered Clouds
3:52 PM 55.9 °F - 32.0 °F 40% 29.65 in 10.0 mi West 28.8 mph 41.4 mph N/A   Mostly Cloudy
4:52 PM 53.1 °F - 30.9 °F 43% 29.70 in 10.0 mi WNW 31.1 mph 38.0 mph N/A   Mostly Cloudy
5:52 PM 50.0 °F - 30.9 °F 48% 29.75 in 10.0 mi West 26.5 mph 36.8 mph N/A   Overcast
6:52 PM 46.0 °F 35.3 °F 30.0 °F 54% 29.80 in 10.0 mi West 40.3 mph 49.5 mph N/A   Mostly Cloudy
7:52 PM 43.0 °F 32.0 °F 30.9 °F 62% 29.84 in 10.0 mi West 33.4 mph 42.6 mph N/A   Overcast
8:52 PM 42.1 °F 31.9 °F 30.9 °F 65% 29.86 in 10.0 mi West 26.5 mph 36.8 mph N/A   Overcast
9:52 PM 41.0 °F 30.2 °F 30.9 °F 67% 29.88 in 10.0 mi West 27.6 mph 36.8 mph N/A   Overcast
10:52 PM 41.0 °F 30.7 °F 32.0 °F 70% 29.90 in 10.0 mi West 25.3 mph 34.5 mph N/A   Overcast
11:18 PM 41.0 °F 30.9 °F 30.2 °F 65% 29.90 in 10.0 mi West 24.2 mph 33.4 mph N/A   Overcast
11:52 PM 41.0 °F 31.1 °F 30.9 °F 67% 29.92 in 10.0 mi West 23.0 mph 32.2 mph N/A   Overcast